{"data":{"norad_id":68056,"intl_designator":"2026-041S","name":"STARLINK-36845","alt_names":[],"object_type":"PAYLOAD","status":"ACTIVE","operator":null,"country":"US","launch_date":"2026-03-02","launch_site_code":"AFETR","launch_vehicle":null,"mission":null,"orbit_class":"UNKNOWN","rcs_meters":null,"size_class":null,"mass_kg":null,"dimensions":null,"purposes":["comms"],"wikipedia_slug":null,"has_3d_model":false,"image_url":null,"decayed_at":null,"tle_current":{"epoch":"2026-09-20T03:44:24.700416Z","epoch_age_seconds":89367,"freshness":"FRESH","line1":"1 68056U 26041S   26263.15584144  .00017471  00000+0  52709-3 0  9994","line2":"2 68056  53.1605 221.5072 0001226  53.9839 306.1277 15.34394767 31238","mean_motion":15.34394767,"eccentricity":0.0001226,"inclination_deg":53.1605,"raan_deg":221.5072,"arg_perigee_deg":53.9839,"mean_anomaly_deg":306.1277,"bstar":0.00052709,"rev_number":3123,"period_min":93.84807814585,"perigee_km":461.88010490979,"apogee_km":463.55748275044,"semimajor_km":6840.8557938301,"source":"CELESTRAK","updated_at":"2026-09-20T09:00:43.750258Z"}}}